Terminal Aerodrome Forecast
Issued by NWS Columbia, SC

Home | Current Version | Previous Version | Text Only | Print | Product List | Glossary On
Versions: 1 2 3 4 5 6 7 8 9 10 11 12 13 14 15 16 17 18 19 20 21 22 23 24 25 26 27 28 29 30 31 32 33 34 35 36 37 38 39 40 41
000
FTUS42 KCAE 291455 AAA
TAFAGS
TAF AMD
KAGS 291455Z 2915/3012 35014G23KT 5SM -SHRA BR SCT010 BKN035 OVC045
      TEMPO 2915/2918 2SM SHRA BR SCT007 OVC015
     FM300300 34010KT 5SM SHRA BR OVC020=

USA.gov is the U.S. government's official web portal to all federal, state and local government web resources and services.